TKJ3288 LTFJ-LTCB

Flight info

Callsign TKJ3288
Flight time N/A
Altitude 37000
Route VICEN1J/06L VICEN T380 ASMAP L333 RIPNU UL333 LATGA UT363 ESB UT364 ILHAN UW71 EMLAD
Aircraft B738/M-SDE2E3FGHIRWXY/LB1

Departure

Time N/A
Airport Istanbul Sabiha Gökçen International Airport (LTFJ)

Arrival

Time 2026-04-21 19:56
Airport Ordu–Giresun Airport (LTCB)
Time Latitude Longitude Altitude Speed Heading
2026-04-21 19:06 40.60341 30.84672 25602 ft 490 kts 107°
2026-04-21 19:06 40.59370 30.88978 25948 ft 492 kts 107°
2026-04-21 19:07 40.58413 30.93320 26274 ft 495 kts 107°
2026-04-21 19:07 40.57471 30.97684 26573 ft 497 kts 106°
2026-04-21 19:07 40.56537 31.02071 26865 ft 500 kts 106°
2026-04-21 19:07 40.55600 31.06484 27119 ft 503 kts 106°
2026-04-21 19:08 40.54656 31.10924 27397 ft 505 kts 106°
2026-04-21 19:08 40.53720 31.15314 27689 ft 507 kts 106°
2026-04-21 19:08 40.52750 31.19839 27959 ft 509 kts 106°
2026-04-21 19:08 40.51800 31.24255 28246 ft 510 kts 106°
2026-04-21 19:09 40.50835 31.28732 28617 ft 509 kts 106°
2026-04-21 19:09 40.49871 31.33196 29014 ft 507 kts 106°
2026-04-21 19:09 40.48908 31.37651 29372 ft 507 kts 106°
2026-04-21 19:09 40.47946 31.42097 29736 ft 506 kts 106°
2026-04-21 19:10 40.46984 31.46535 30095 ft 505 kts 106°
2026-04-21 19:10 40.46020 31.50966 30417 ft 505 kts 106°
2026-04-21 19:10 40.45058 31.55394 30736 ft 504 kts 106°
2026-04-21 19:10 40.44095 31.59812 31034 ft 504 kts 106°
2026-04-21 19:11 40.43128 31.64237 31369 ft 503 kts 106°
2026-04-21 19:11 40.42165 31.68643 31683 ft 502 kts 106°
2026-04-21 19:11 40.41527 31.71557 31870 ft 502 kts 106°
2026-04-21 19:11 40.40234 31.77457 32214 ft 503 kts 106°
2026-04-21 19:12 40.39593 31.80377 32410 ft 503 kts 106°
2026-04-21 19:12 40.38625 31.84779 32736 ft 501 kts 106°
2026-04-21 19:12 40.37657 31.89164 33035 ft 501 kts 106°
2026-04-21 19:12 40.36687 31.93551 33293 ft 501 kts 106°
2026-04-21 19:13 40.35382 31.99355 33633 ft 501 kts 107°
2026-04-21 19:13 40.34700 32.02306 33809 ft 500 kts 107°
2026-04-21 19:13 40.33686 32.06673 34030 ft 501 kts 107°
2026-04-21 19:13 40.32680 32.11046 34272 ft 501 kts 106°
2026-04-21 19:14 40.31761 32.15446 34525 ft 500 kts 104°
2026-04-21 19:14 40.30916 32.19806 34784 ft 499 kts 104°
2026-04-21 19:14 40.30082 32.24221 35029 ft 499 kts 104°
2026-04-21 19:14 40.29246 32.28630 35227 ft 499 kts 104°
2026-04-21 19:15 40.28400 32.33031 35461 ft 498 kts 104°
2026-04-21 19:15 40.27541 32.37433 35672 ft 498 kts 104°
2026-04-21 19:15 40.26673 32.41827 35863 ft 499 kts 104°
2026-04-21 19:15 40.25799 32.46217 36102 ft 498 kts 104°
2026-04-21 19:16 40.24923 32.50599 36317 ft 497 kts 104°
2026-04-21 19:16 40.24047 32.54975 36487 ft 497 kts 105°
2026-04-21 19:16 40.23169 32.59356 36658 ft 498 kts 105°
2026-04-21 19:16 40.22302 32.63672 36920 ft 495 kts 105°
2026-04-21 19:17 40.20549 32.72389 36976 ft 494 kts 105°
2026-04-21 19:17 40.18808 32.81005 36960 ft 486 kts 105°
2026-04-21 19:18 40.17075 32.89550 36973 ft 487 kts 105°
2026-04-21 19:18 40.15642 32.98193 36942 ft 486 kts 90°
2026-04-21 19:19 40.15931 33.02565 36979 ft 482 kts 75°
2026-04-21 19:19 40.16941 33.06713 36957 ft 477 kts 61°
2026-04-21 19:19 40.20184 33.14236 36963 ft 476 kts 56°
2026-04-21 19:20 40.23539 33.21725 36967 ft 478 kts 56°
2026-04-21 19:20 40.26821 33.29239 36974 ft 480 kts 57°
2026-04-21 19:21 40.30100 33.36868 36970 ft 481 kts 57°
2026-04-21 19:21 40.33374 33.44525 36976 ft 482 kts 57°
2026-04-21 19:22 40.36649 33.52189 36966 ft 482 kts 57°
2026-04-21 19:22 40.39924 33.59869 36976 ft 482 kts 57°
2026-04-21 19:23 40.43195 33.67554 36967 ft 483 kts 57°
2026-04-21 19:23 40.45865 33.75664 36985 ft 487 kts 70°
2026-04-21 19:24 40.47882 33.84154 36976 ft 486 kts 70°
2026-04-21 19:24 40.49966 33.92599 36971 ft 486 kts 69°
2026-04-21 19:25 40.52304 34.00840 36967 ft 484 kts 65°
2026-04-21 19:25 40.54870 34.09007 36970 ft 483 kts 64°
2026-04-21 19:26 40.57423 34.17174 36972 ft 483 kts 65°
2026-04-21 19:26 40.59936 34.25361 36974 ft 483 kts 65°
2026-04-21 19:27 40.62432 34.33565 36975 ft 483 kts 65°
2026-04-21 19:27 40.64922 34.41774 36973 ft 482 kts 65°
2026-04-21 19:28 40.67406 34.49985 36966 ft 482 kts 65°
2026-04-21 19:28 40.69886 34.58204 36976 ft 483 kts 65°
2026-04-21 19:29 40.72360 34.66426 36968 ft 483 kts 65°
2026-04-21 19:29 40.74813 34.74606 36963 ft 483 kts 66°
2026-04-21 19:30 40.77273 34.82897 36973 ft 482 kts 66°
2026-04-21 19:30 40.79701 34.91152 36965 ft 482 kts 66°
2026-04-21 19:31 40.82104 34.99339 36959 ft 482 kts 66°
2026-04-21 19:31 40.84521 35.07586 36963 ft 481 kts 66°
2026-04-21 19:32 40.86931 35.15838 36963 ft 481 kts 66°
2026-04-21 19:32 40.89328 35.24071 36969 ft 480 kts 66°
2026-04-21 19:33 40.91720 35.32313 36976 ft 480 kts 66°
2026-04-21 19:33 40.94111 35.40575 36974 ft 481 kts 66°
2026-04-21 19:34 40.96502 35.48857 36974 ft 482 kts 66°
2026-04-21 19:34 40.98906 35.57186 36451 ft 489 kts 66°
2026-04-21 19:35 41.00113 35.61377 35918 ft 486 kts 66°
2026-04-21 19:35 41.02504 35.69703 34602 ft 488 kts 66°
2026-04-21 19:35 41.03726 35.73899 33965 ft 488 kts 65°
2026-04-21 19:36 41.04960 35.78091 33285 ft 489 kts 65°
2026-04-21 19:36 41.06197 35.82290 32584 ft 490 kts 65°
2026-04-21 19:36 41.07433 35.86495 31860 ft 491 kts 65°
2026-04-21 19:36 41.08666 35.90715 31108 ft 492 kts 65°
2026-04-21 19:37 41.09896 35.94948 30340 ft 493 kts 65°
2026-04-21 19:37 41.11105 35.99205 29533 ft 494 kts 66°
2026-04-21 19:37 41.12305 36.03483 28684 ft 495 kts 66°
2026-04-21 19:37 41.13505 36.07780 27788 ft 496 kts 66°
2026-04-21 19:38 41.14702 36.12070 26873 ft 496 kts 66°
2026-04-21 19:38 41.15884 36.16307 26061 ft 495 kts 66°
2026-04-21 19:38 41.17072 36.20562 25394 ft 489 kts 66°
2026-04-21 19:38 41.18245 36.24766 24736 ft 483 kts 67°
2026-04-21 19:39 41.19406 36.28932 24067 ft 478 kts 67°
2026-04-21 19:39 41.20552 36.33052 23411 ft 473 kts 67°
2026-04-21 19:39 41.21683 36.37126 22749 ft 467 kts 67°
2026-04-21 19:39 41.22801 36.41154 22110 ft 462 kts 67°
2026-04-21 19:40 41.23906 36.45138 21469 ft 458 kts 68°
2026-04-21 19:40 41.24998 36.49090 20829 ft 453 kts 68°
2026-04-21 19:40 41.25912 36.53074 20183 ft 451 kts 77°
2026-04-21 19:40 41.26320 36.57186 19630 ft 446 kts 86°
2026-04-21 19:41 41.26244 36.61276 19090 ft 441 kts 95°
2026-04-21 19:41 41.25918 36.65308 18492 ft 436 kts 96°
2026-04-21 19:41 41.25586 36.69247 17887 ft 433 kts 96°
2026-04-21 19:41 41.25257 36.73206 17271 ft 430 kts 96°
2026-04-21 19:42 41.24939 36.77142 16654 ft 426 kts 96°
2026-04-21 19:42 41.24632 36.81042 16041 ft 423 kts 95°
2026-04-21 19:42 41.24337 36.84908 15427 ft 419 kts 96°
2026-04-21 19:42 41.24044 36.88732 14818 ft 415 kts 96°
2026-04-21 19:43 41.23750 36.92529 14217 ft 412 kts 96°
2026-04-21 19:43 41.23458 36.96300 13616 ft 409 kts 96°
2026-04-21 19:43 41.23167 37.00041 13018 ft 406 kts 96°
2026-04-21 19:43 41.22878 37.03752 12419 ft 403 kts 96°
2026-04-21 19:44 41.22590 37.07437 11824 ft 399 kts 96°
2026-04-21 19:44 41.22303 37.11092 11249 ft 396 kts 96°
2026-04-21 19:44 41.22022 37.14665 11083 ft 381 kts 96°
2026-04-21 19:44 41.21750 37.18112 10902 ft 369 kts 96°
2026-04-21 19:45 41.21485 37.21442 10741 ft 357 kts 96°
2026-04-21 19:45 41.21235 37.24662 10593 ft 345 kts 96°
2026-04-21 19:45 41.21009 37.27784 10454 ft 334 kts 95°
2026-04-21 19:45 41.20794 37.30810 10318 ft 324 kts 95°
2026-04-21 19:46 41.20584 37.33747 10184 ft 315 kts 95°
2026-04-21 19:46 41.20380 37.36598 10062 ft 306 kts 95°
2026-04-21 19:46 41.20183 37.39319 9974 ft 293 kts 96°
2026-04-21 19:46 41.19986 37.42020 9591 ft 293 kts 96°
2026-04-21 19:47 41.19792 37.44679 9311 ft 287 kts 96°
2026-04-21 19:47 41.19600 37.47295 9033 ft 281 kts 96°
2026-04-21 19:47 41.19411 37.49857 8749 ft 276 kts 96°
2026-04-21 19:47 41.19225 37.52370 8468 ft 271 kts 96°
2026-04-21 19:48 41.19042 37.54835 8203 ft 266 kts 96°
2026-04-21 19:48 41.18890 37.57259 7942 ft 261 kts 94°
2026-04-21 19:48 41.18770 37.59654 7702 ft 260 kts 97°
2026-04-21 19:48 41.18144 37.61879 7401 ft 261 kts 131°
2026-04-21 19:49 41.16736 37.63420 7198 ft 268 kts 149°
2026-04-21 19:49 41.15099 37.64675 6917 ft 276 kts 152°
2026-04-21 19:49 41.13438 37.65902 6599 ft 277 kts 152°
2026-04-21 19:49 41.11763 37.67155 6291 ft 276 kts 151°
2026-04-21 19:50 41.10639 37.68003 6083 ft 275 kts 151°
2026-04-21 19:50 41.08455 37.69677 5672 ft 270 kts 150°
2026-04-21 19:50 41.06847 37.70917 5387 ft 264 kts 150°
2026-04-21 19:50 41.05278 37.72128 5104 ft 258 kts 150°
2026-04-21 19:51 41.03733 37.73321 4832 ft 255 kts 150°
2026-04-21 19:51 41.02323 37.74678 4531 ft 250 kts 128°
2026-04-21 19:51 41.01699 37.76727 4386 ft 237 kts 96°
2026-04-21 19:51 41.01502 37.78856 4173 ft 229 kts 102°
2026-04-21 19:52 41.01138 37.80870 3942 ft 222 kts 103°
2026-04-21 19:52 41.00802 37.82848 3714 ft 220 kts 102°
2026-04-21 19:52 41.00482 37.84838 3498 ft 222 kts 102°
2026-04-21 19:52 41.00173 37.86777 3289 ft 213 kts 102°
2026-04-21 19:53 40.99874 37.88630 3045 ft 200 kts 102°
2026-04-21 19:53 40.99591 37.90392 2823 ft 192 kts 102°
2026-04-21 19:53 40.99316 37.92105 2621 ft 186 kts 102°
2026-04-21 19:53 40.99054 37.93740 2336 ft 177 kts 102°
2026-04-21 19:54 40.98805 37.95290 2082 ft 167 kts 102°
2026-04-21 19:54 40.98575 37.96726 1856 ft 154 kts 101°
2026-04-21 19:54 40.98359 37.98081 1608 ft 148 kts 102°
2026-04-21 19:54 40.98144 37.99429 1384 ft 151 kts 102°
2026-04-21 19:55 40.97925 38.00790 1151 ft 152 kts 101°
2026-04-21 19:55 40.97708 38.02153 912 ft 151 kts 101°
2026-04-21 19:55 40.97492 38.03509 681 ft 150 kts 101°
2026-04-21 19:55 40.97278 38.04852 453 ft 149 kts 101°
2026-04-21 19:56 40.97067 38.06198 212 ft 149 kts 101°
2026-04-21 19:56 40.96863 38.07518 29 ft 146 kts 101°
2026-04-21 19:56 40.96671 38.08715 0 ft 107 kts 102°
2026-04-21 19:56 40.96588 38.09260 2 ft 21 kts 100°
2026-04-21 19:57 40.96579 38.09408 4 ft 16 kts 104°
2026-04-21 19:57 40.96543 38.09413 4 ft 5 kts 265°
2026-04-21 19:57 40.96561 38.09373 5 ft 5 kts 295°
2026-04-21 19:57 40.96583 38.09272 3 ft 19 kts 281°
2026-04-21 19:58 40.96611 38.09086 0 ft 22 kts 281°
2026-04-21 19:58 40.96644 38.08884 0 ft 22 kts 282°
2026-04-21 19:58 40.96675 38.08687 -1 ft 22 kts 282°
2026-04-21 19:58 40.96705 38.08496 1 ft 21 kts 282°
2026-04-21 19:59 40.96735 38.08310 2 ft 20 kts 282°
2026-04-21 19:59 40.96743 38.08132 4 ft 20 kts 231°
2026-04-21 19:59 40.96636 38.08088 2 ft 11 kts 190°
2026-04-21 19:59 40.96569 38.08071 2 ft 7 kts 191°
2026-04-21 20:00 40.96544 38.08064 2 ft 1 kts 191°
2026-04-21 20:00 40.96537 38.08063 3 ft 1 kts 191°
2026-04-21 20:00 40.96498 38.08057 2 ft 7 kts 184°
2026-04-21 20:00 40.96474 38.08018 2 ft 6 kts 288°
2026-04-21 20:01 40.96489 38.07999 3 ft 2 kts 320°
2026-04-21 20:01 40.96502 38.07985 3 ft 2 kts 318°
2026-04-21 20:01 40.96502 38.07984 2 ft 0 kts 318°
2026-04-21 20:01 40.96503 38.07983 2 ft 0 kts 318°